EW5195 Weather Reports


Display with metric or nautical units.
time (UTC)temp
F
wind
direction
speed
MPH
gust
MPH
rain 1hr
in
rain 24hr
in
rain mn
in
humidity
%
barometer
mb
20260905024612 73 0 0.0 0.0 0.01 0.31 0.31 94 1014.3
20260905024050 73 0 0.0 0.0 0.00 0.30 0.30 94 1014.4
20260905023554 73 0 0.0 0.0 0.00 0.30 0.30 94 1014.6
20260905023106 73 0 0.0 0.0 0.00 0.30 0.30 94 1014.5
20260905022552 73 0 0.0 0.0 0.00 0.30 0.30 94 1014.6
20260905022050 73 0 0.0 0.0 0.00 0.30 0.30 94 1014.7
20260905021605 73 0 0.0 0.0 0.00 0.30 0.30 94 1014.6
20260905021052 73 0 0.0 0.0 0.00 0.30 0.30 94 1014.4
20260905020551 73 0 0.0 0.0 0.00 0.30 0.30 94 1014.5
20260905020112 73 0 0.0 0.0 0.00 0.30 0.30 94 1014.7
20260905015550 73 0 0.0 0.0 0.00 0.30 0.30 94 1014.7
20260905015052 73 0 0.0 0.0 0.00 0.30 0.30 94 1014.7
20260905014605 73 0 0.0 0.0 0.00 0.30 0.30 94 1014.7
20260905014049 73 0 0.0 0.0 0.00 0.30 0.30 94 1014.7
20260905013550 73 0 0.0 0.0 0.00 0.30 0.30 94 1014.7
20260905013111 73 0 0.0 0.0 0.00 0.30 0.30 94 1014.5
20260905012550 73 0 0.0 0.0 0.00 0.30 0.30 94 1014.3
20260905012050 73 0 0.0 0.0 0.00 0.30 0.30 94 1014.1
20260905011631 73 0 0.0 0.0 0.00 0.30 0.30 94 1014.1
20260905011052 73 0 0.0 0.0 0.00 0.30 0.30 94 1013.8
20260905010550 73 0 0.0 0.0 0.00 0.30 0.30 94 1013.6
20260905010106 73 0 0.0 0.0 0.00 0.30 0.30 94 1013.8
20260905005551 73 0 0.0 0.0 0.00 0.30 0.30 94 1014.0
20260905005053 73 0 0.0 0.0 0.00 0.30 0.30 94 1014.1
20260905004607 73 0 0.0 0.0 0.00 0.30 0.30 94 1013.9
20260905004050 73 0 0.0 0.0 0.00 0.30 0.30 94 1013.7
20260905003553 73 0 0.0 0.0 0.00 0.30 0.30 94 1013.7
20260905003102 73 0 0.0 0.0 0.00 0.30 0.30 94 1013.6
20260905002550 73 0 0.0 0.0 0.00 0.30 0.30 94 1013.7
20260905002050 73 0 0.0 0.0 0.00 0.30 0.30 94 1013.4
20260905001605 73 0 0.0 0.0 0.00 0.30 0.30 94 1013.3
20260905001050 73 0 0.0 0.0 0.00 0.30 0.30 94 1013.1
20260905000550 73 0 0.0 0.0 0.00 0.30 0.30 94 1012.6
20260905000107 74 0 0.0 0.0 0.00 0.30 0.30 94 1012.5
20260904235552 74 0 0.0 0.0 0.00 0.30 0.30 94 1012.7
20260904235059 74 0 0.0 0.0 0.00 0.30 0.30 94 1013.3
20260904234608 74 0 0.0 0.0 0.00 0.30 0.30 94 1013.0
20260904234050 74 0 0.0 0.0 0.00 0.30 0.30 94 1013.1
20260904233551 74 0 0.0 0.0 0.01 0.30 0.30 94 1013.7
20260904233104 74 0 0.0 0.0 0.01 0.30 0.30 94 1014.2
20260904232550 74 0 0.0 0.0 0.13 0.30 0.30 94 1014.5
20260904232049 74 0 0.0 0.0 0.14 0.30 0.30 94 1014.3
20260904231606 74 0 0.0 0.0 0.14 0.30 0.30 93 1014.2
20260904231055 73 0 0.0 0.0 0.15 0.30 0.30 93 1014.3
20260904230552 73 0 0.0 0.0 0.23 0.30 0.30 93 1014.2
20260904230105 73 0 0.0 0.0 0.30 0.30 0.30 93 1014.3
20260904225552 73 0 0.0 0.0 0.30 0.30 0.30 93 1014.6
20260904225053 73 0 0.0 0.0 0.30 0.30 0.30 92 1014.6
20260904224605 73 0 0.0 0.0 0.30 0.30 0.30 92 1014.4
20260904224053 74 0 0.0 0.0 0.30 0.30 0.30 92 1014.6
20260904223602 74 0 0.0 0.0 0.29 0.29 0.29 91 1015.3
20260904223108 74 0 0.0 0.0 0.29 0.29 0.29 91 1015.7
20260904222551 74 0 0.0 0.0 0.17 0.17 0.17 90 1016.2
20260904222052 74 0 0.0 0.0 0.16 0.16 0.16 89 1015.4
20260904221608 75 0 0.0 0.0 0.16 0.16 0.16 89 1014.1
20260904221052 76 0 0.0 0.0 0.15 0.15 0.15 86 1013.7
20260904220551 79 0 0.0 0.0 0.07 0.07 0.07 83 1013.7
20260904220109 83 0 0.0 0.0 0.00 0.00 0.00 79 1014.3
20260904215550 85 0 0.0 0.0 0.00 0.00 0.00 76 1014.3
20260904215054 86 0 0.0 0.0 0.00 0.00 0.00 76 1014.0
20260904214605 87 0 0.0 0.0 0.00 0.00 0.00 83 1013.1
20260904214051 87 0 0.0 0.0 0.00 0.00 0.00 83 1012.8
20260904213550 87 0 0.0 0.0 0.00 0.00 0.00 83 1012.9
20260904213109 87 0 0.0 0.0 0.00 0.00 0.00 83 1012.8
20260904212551 88 0 0.0 0.0 0.00 0.00 0.00 82 1012.7
20260904212050 88 0 0.0 0.0 0.00 0.00 0.00 84 1012.8
20260904211608 88 0 0.0 0.0 0.00 0.00 0.00 82 1012.7
20260904211051 89 0 0.0 0.0 0.00 0.00 0.00 80 1012.7
20260904210551 89 0 0.0 0.0 0.00 0.00 0.00 79 1012.7
20260904210107 89 0 0.0 0.0 0.00 0.00 0.00 79 1012.7
20260904205551 89 0 0.0 0.0 0.00 0.00 0.00 79 1012.7
20260904205051 89 0 0.0 0.0 0.00 0.00 0.00 77 1012.7
20260904204604 89 0 0.0 0.0 0.00 0.00 0.00 78 1012.7
20260904204052 89 0 0.0 0.0 0.00 0.00 0.00 79 1012.5
20260904203551 89 0 0.0 0.0 0.00 0.00 0.00 79 1012.5
20260904203108 89 0 0.0 0.0 0.00 0.00 0.00 74 1012.4
20260904202550 89 0 0.0 0.0 0.00 0.00 0.00 76 1012.4
20260904202050 90 0 0.0 0.0 0.00 0.00 0.00 75 1012.5
20260904201603 90 0 0.0 0.0 0.00 0.00 0.00 74 1012.5
20260904201050 91 0 0.0 0.0 0.00 0.00 0.00 70 1012.6
20260904200550 91 0 0.0 0.0 0.00 0.00 0.00 70 1012.8
20260904200107 92 0 0.0 0.0 0.00 0.00 0.00 66 1013.0
20260904195549 93 0 0.0 0.0 0.00 0.00 0.00 64 1012.9
20260904195054 93 0 0.0 0.0 0.00 0.00 0.00 63 1013.1
20260904194631 94 0 0.0 0.0 0.00 0.00 0.00 60 1013.2
20260904194051 95 0 0.0 0.0 0.00 0.00 0.00 61 1013.1
20260904193551 96 0 0.0 0.0 0.00 0.00 0.00 66 1013.2
20260904193107 95 0 0.0 0.0 0.00 0.00 0.00 63 1013.3
20260904192553 95 0 0.0 0.0 0.00 0.00 0.00 61 1013.3
20260904192049 95 0 0.0 0.0 0.00 0.00 0.00 59 1013.4
20260904191605 95 0 0.0 0.0 0.00 0.00 0.00 61 1013.6
20260904191050 94 0 0.0 0.0 0.00 0.00 0.00 59 1013.5
20260904190549 95 0 0.0 0.0 0.00 0.00 0.00 57 1013.7
20260904185550 95 0 0.0 0.0 0.00 0.00 0.00 58 1013.9
20260904185054 95 0 0.0 0.0 0.00 0.00 0.00 62 1013.9
20260904184607 95 0 0.0 0.0 0.00 0.00 0.00 61 1014.0
20260904184052 95 0 0.0 0.0 0.00 0.00 0.00 62 1014.1
20260904183552 95 0 0.0 0.0 0.00 0.00 0.00 56 1014.1
20260904183117 95 0 0.0 0.0 0.00 0.00 0.00 62 1014.3
20260904182549 94 0 0.0 0.0 0.00 0.00 0.00 60 1014.4
20260904182050 94 0 0.0 0.0 0.00 0.00 0.00 60 1014.4
20260904181611 95 0 0.0 0.0 0.00 0.00 0.00 61 1014.3
20260904181050 95 0 0.0 0.0 0.00 0.00 0.00 61 1014.4
20260904180552 94 0 0.0 0.0 0.00 0.00 0.00 59 1014.5
20260904180108 94 0 0.0 0.0 0.00 0.00 0.00 61 1014.6
20260904175551 94 0 0.0 0.0 0.00 0.00 0.00 60 1014.7
20260904175051 93 0 0.0 0.0 0.00 0.00 0.00 64 1014.8
20260904174605 94 0 0.0 0.0 0.00 0.00 0.00 62 1014.8
20260904174051 94 0 0.0 0.0 0.00 0.00 0.00 57 1014.8
20260904173552 94 0 0.0 0.0 0.00 0.00 0.00 60 1014.8
20260904173109 93 0 0.0 0.0 0.00 0.00 0.00 60 1014.9
20260904172555 93 0 0.0 0.0 0.00 0.00 0.00 62 1014.9
20260904172051 94 0 0.0 0.0 0.00 0.00 0.00 61 1014.9
20260904171622 93 0 0.0 0.0 0.00 0.00 0.00 61 1014.7
20260904171051 94 0 0.0 0.0 0.00 0.00 0.00 60 1014.7
20260904170550 94 0 0.0 0.0 0.00 0.00 0.00 60 1014.9
20260904170105 93 0 0.0 0.0 0.00 0.00 0.00 61 1014.7
20260904165552 94 0 0.0 0.0 0.00 0.00 0.00 66 1014.8
20260904165058 93 0 0.0 0.0 0.00 0.00 0.00 61 1015.1
20260904164608 93 0 0.0 0.0 0.00 0.00 0.00 62 1014.8
20260904164052 93 0 0.0 0.0 0.00 0.00 0.00 61 1014.9
20260904163552 93 0 0.0 0.0 0.00 0.00 0.00 62 1014.9
20260904163107 93 0 0.0 0.0 0.00 0.00 0.00 66 1015.0
20260904162554 93 0 0.0 0.0 0.00 0.00 0.00 62 1015.1
20260904162050 93 0 0.0 0.0 0.00 0.00 0.00 60 1015.2
20260904161605 93 0 0.0 0.0 0.00 0.00 0.00 64 1015.3
20260904161050 93 0 0.0 0.0 0.00 0.00 0.00 60 1015.3
20260904160552 93 0 0.0 0.0 0.00 0.00 0.00 64 1015.3
20260904160109 92 0 0.0 0.0 0.00 0.00 0.00 61 1015.3
20260904155551 93 0 0.0 0.0 0.00 0.00 0.00 62 1015.5
20260904155051 93 0 0.0 0.0 0.00 0.00 0.00 63 1015.3
20260904154604 92 0 0.0 0.0 0.00 0.00 0.00 64 1015.4
20260904154052 92 0 0.0 0.0 0.00 0.00 0.00 65 1015.4
20260904153552 92 0 0.0 0.0 0.00 0.00 0.00 68 1015.4
20260904153101 91 0 0.0 0.0 0.00 0.00 0.00 68 1015.3
20260904152548 91 0 0.0 0.0 0.00 0.00 0.00 73 1015.4
20260904152054 91 0 0.0 0.0 0.00 0.00 0.00 71 1015.3
20260904151604 90 0 0.0 0.0 0.00 0.00 0.00 70 1015.4
20260904151051 91 0 0.0 0.0 0.00 0.00 0.00 71 1015.5
20260904150551 91 0 0.0 0.0 0.00 0.00 0.00 74 1015.5
20260904150106 90 0 0.0 0.0 0.00 0.00 0.00 73 1015.5
20260904145554 90 0 0.0 0.0 0.00 0.00 0.00 72 1015.4
20260904145052 90 0 0.0 0.0 0.00 0.00 0.00 72 1015.4
20260904144604 90 0 0.0 0.0 0.00 0.00 0.00 75 1015.4
20260904144051 89 0 0.0 0.0 0.00 0.00 0.00 75 1015.3
20260904143554 89 0 0.0 0.0 0.00 0.00 0.00 72 1015.4
20260904143135 89 0 0.0 0.0 0.00 0.00 0.00 75 1015.2
20260904142551 89 0 0.0 0.0 0.00 0.00 0.00 76 1015.3
20260904142050 88 0 0.0 0.0 0.00 0.00 0.00 76 1015.3
20260904141609 88 0 0.0 0.0 0.00 0.00 0.00 78 1015.1
20260904141050 88 0 0.0 0.0 0.00 0.00 0.00 76 1015.3
20260904140550 87 0 0.0 0.0 0.00 0.00 0.00 76 1015.3
20260904140104 87 0 0.0 0.0 0.00 0.00 0.00 77 1015.2
20260904135551 87 0 0.0 0.0 0.00 0.00 0.00 79 1015.2
20260904135053 86 0 0.0 0.0 0.00 0.00 0.00 79 1015.2
20260904134608 86 0 0.0 0.0 0.00 0.00 0.00 80 1015.2
20260904134055 86 0 0.0 0.0 0.00 0.00 0.00 79 1015.2
20260904133551 85 0 0.0 0.0 0.00 0.00 0.00 80 1015.1
20260904133101 85 0 0.0 0.0 0.00 0.00 0.00 82 1015.1
20260904132551 84 0 0.0 0.0 0.00 0.00 0.00 83 1015.1
20260904132051 83 0 0.0 0.0 0.00 0.00 0.00 83 1015.0
20260904131618 83 0 0.0 0.0 0.00 0.00 0.00 84 1014.9
20260904131050 82 0 0.0 0.0 0.00 0.00 0.00 85 1015.1
20260904130551 81 0 0.0 0.0 0.00 0.00 0.00 86 1015.2
20260904130104 81 0 0.0 0.0 0.00 0.00 0.00 87 1015.3
20260904125555 81 0 0.0 0.0 0.00 0.00 0.00 86 1015.2
20260904125050 80 0 0.0 0.0 0.00 0.00 0.00 88 1015.3
20260904124603 80 0 0.0 0.0 0.00 0.00 0.00 88 1015.2
20260904124051 79 0 0.0 0.0 0.00 0.00 0.00 88 1015.2
20260904123551 79 0 0.0 0.0 0.00 0.00 0.00 89 1015.3
20260904123108 79 0 0.0 0.0 0.00 0.00 0.00 90 1015.3
20260904122551 78 0 0.0 0.0 0.00 0.00 0.00 90 1015.3
20260904122051 78 0 0.0 0.0 0.00 0.00 0.00 91 1015.4
20260904121603 77 0 0.0 0.0 0.00 0.00 0.00 92 1015.4
20260904121124 76 0 0.0 0.0 0.00 0.00 0.00 92 1015.4
20260904121051 76 0 0.0 0.0 0.00 0.00 0.00 92 1015.4
20260904120619 76 0 0.0 0.0 0.00 0.00 0.00 93 1015.4
20260904120110 75 0 0.0 0.0 0.00 0.00 0.00 93 1015.2
20260904115551 75 0 0.0 0.0 0.00 0.00 0.00 93 1015.4
20260904115051 75 0 0.0 0.0 0.00 0.00 0.00 93 1015.2
20260904114612 75 0 0.0 0.0 0.00 0.00 0.00 93 1015.3
20260904114051 75 0 0.0 0.0 0.00 0.00 0.00 93 1015.4
20260904113550 75 0 0.0 0.0 0.00 0.00 0.00 93 1015.2
20260904113108 74 0 0.0 0.0 0.00 0.00 0.00 93 1015.2
20260904112550 74 0 0.0 0.0 0.00 0.00 0.00 93 1015.3
20260904112051 74 0 0.0 0.0 0.00 0.00 0.00 93 1015.2
20260904111604 74 0 0.0 0.0 0.00 0.00 0.00 93 1015.2
20260904111053 74 0 0.0 0.0 0.00 0.00 0.00 93 1015.2
20260904110551 74 0 0.0 0.0 0.00 0.00 0.00 93 1015.2
20260904110116 74 0 0.0 0.0 0.00 0.00 0.00 92 1015.1
20260904105551 74 0 0.0 0.0 0.00 0.00 0.00 92 1015.3
20260904105054 74 0 0.0 0.0 0.00 0.00 0.00 93 1015.2
20260904104604 74 0 0.0 0.0 0.00 0.00 0.00 92 1015.0
20260904104050 75 0 0.0 0.0 0.00 0.00 0.00 92 1015.1
20260904103550 75 0 0.0 0.0 0.00 0.00 0.00 92 1015.1
20260904103109 75 0 0.0 0.0 0.00 0.00 0.00 92 1014.8
20260904102551 75 0 0.0 0.0 0.00 0.00 0.00 92 1015.0
20260904102050 75 0 0.0 0.0 0.00 0.00 0.00 92 1015.1
20260904101606 75 0 0.0 0.0 0.00 0.00 0.00 92 1015.1
20260904101054 75 0 0.0 0.0 0.00 0.00 0.00 92 1015.1
20260904100553 75 0 0.0 0.0 0.00 0.00 0.00 92 1015.1
20260904100100 75 0 0.0 0.0 0.00 0.00 0.00 92 1015.0
20260904095552 75 0 0.0 0.0 0.00 0.01 0.00 92 1015.0
20260904095052 76 0 0.0 0.0 0.00 0.01 0.00 91 1015.1
20260904094606 76 0 0.0 0.0 0.00 0.01 0.00 91 1015.1
20260904094051 76 0 0.0 0.0 0.00 0.01 0.00 91 1015.1
20260904093551 76 0 0.0 0.0 0.00 0.01 0.00 91 1015.2
20260904093106 76 0 0.0 0.0 0.00 0.01 0.00 91 1015.3
20260904092553 76 0 0.0 0.0 0.00 0.01 0.00 91 1015.4
20260904092052 76 0 0.0 0.0 0.00 0.01 0.00 90 1015.3
20260904091604 76 0 0.0 0.0 0.00 0.01 0.00 90 1015.3
20260904091052 76 0 0.0 0.0 0.00 0.01 0.00 90 1015.3
20260904090548 76 0 0.0 0.0 0.00 0.01 0.00 90 1015.3
20260904090109 77 0 0.0 0.0 0.00 0.01 0.00 90 1015.3
20260904085555 77 0 0.0 0.0 0.00 0.01 0.00 90 1015.1
20260904085051 77 0 0.0 0.0 0.00 0.01 0.00 90 1015.1
20260904084603 77 0 0.0 0.0 0.00 0.01 0.00 90 1015.2
20260904084050 77 0 0.0 0.0 0.00 0.01 0.00 90 1015.1
20260904083550 77 0 0.0 0.0 0.00 0.01 0.00 89 1015.2
20260904083109 77 0 0.0 0.0 0.00 0.01 0.00 90 1015.1
20260904082552 77 0 0.0 0.0 0.00 0.01 0.00 90 1015.0
20260904082048 77 0 0.0 0.0 0.00 0.01 0.00 89 1015.2
20260904081602 77 0 0.0 0.0 0.00 0.01 0.00 89 1015.1
20260904081051 77 0 0.0 0.0 0.00 0.01 0.00 89 1015.0
20260904080548 77 0 0.0 0.0 0.00 0.01 0.00 89 1015.0
20260904075551 78 0 0.0 0.0 0.00 0.01 0.00 89 1015.1
20260904075051 78 0 0.0 0.0 0.00 0.01 0.00 89 1015.0
20260904074622 78 0 0.0 0.0 0.00 0.01 0.00 88 1015.1
20260904074050 78 0 0.0 0.0 0.00 0.01 0.00 88 1014.9
20260904073551 78 0 0.0 0.0 0.00 0.01 0.00 87 1014.8
20260904073118 79 0 0.0 0.0 0.00 0.01 0.00 87 1014.9
20260904072548 79 0 0.0 0.0 0.00 0.01 0.00 86 1014.8
20260904072048 79 0 0.0 0.0 0.00 0.01 0.00 86 1014.9
20260904071609 80 0 0.0 0.0 0.00 0.01 0.00 85 1014.7
20260904071049 80 0 0.0 0.0 0.00 0.01 0.00 84 1014.9
20260904070551 80 0 0.0 0.0 0.00 0.01 0.00 85 1014.9
20260904070107 80 0 0.0 0.0 0.00 0.01 0.00 85 1014.7
20260904065550 80 0 0.0 0.0 0.00 0.01 0.00 87 1014.8
20260904065047 80 0 0.0 0.0 0.00 0.01 0.00 87 1014.5
20260904064602 81 0 0.0 0.0 0.00 0.01 0.00 85 1014.6
20260904064052 81 0 0.0 0.0 0.00 0.01 0.00 84 1014.9
20260904063551 81 0 0.0 0.0 0.00 0.01 0.00 84 1015.1
20260904063104 82 0 0.0 0.0 0.00 0.01 0.00 83 1015.0
20260904062548 81 0 0.0 0.0 0.00 0.01 0.00 84 1015.7
20260904062048 81 0 0.0 0.0 0.00 0.01 0.00 85 1015.1
20260904061603 80 0 0.0 0.0 0.00 0.01 0.00 86 1015.7
20260904061048 80 0 0.0 0.0 0.00 0.01 0.00 87 1014.8
20260904060550 80 0 0.0 0.0 0.00 0.01 0.00 87 1014.5
20260904055550 80 0 0.0 0.0 0.00 0.01 0.00 87 1014.7
20260904055048 80 0 0.0 0.0 0.00 0.01 0.00 87 1014.7
20260904054606 80 0 0.0 0.0 0.00 0.01 0.00 88 1014.7
20260904054049 80 0 0.0 0.0 0.00 0.01 0.00 88 1014.6
20260904053548 80 0 0.0 0.0 0.00 0.01 0.00 88 1014.8
20260904053106 79 0 0.0 0.0 0.00 0.01 0.00 89 1014.7
20260904052551 79 0 0.0 0.0 0.00 0.01 0.00 89 1014.9
20260904052049 79 0 0.0 0.0 0.00 0.01 0.00 90 1014.9
20260904051604 79 0 0.0 0.0 0.00 0.01 0.00 90 1014.9
20260904051048 79 0 0.0 0.0 0.00 0.01 0.00 90 1015.0
20260904050549 79 0 0.0 0.0 0.00 0.01 0.00 91 1015.2
20260904050105 79 0 0.0 0.0 0.00 0.01 0.00 91 1015.1
20260904045549 79 0 0.0 0.0 0.00 0.01 0.00 91 1015.1
20260904045052 79 0 0.0 0.0 0.00 0.01 0.00 91 1015.1
20260904044603 79 0 0.0 0.0 0.00 0.01 0.00 92 1015.2
20260904044051 79 0 0.0 0.0 0.00 0.01 0.00 92 1015.3
20260904043548 78 0 0.0 0.0 0.00 0.01 0.00 92 1015.5
20260904043109 78 0 0.0 0.0 0.00 0.01 0.00 92 1015.4
20260904042554 78 0 0.0 0.0 0.00 0.01 0.00 92 1015.5
20260904042051 78 0 0.0 0.0 0.00 0.01 0.00 92 1015.5
20260904041558 78 0 0.0 0.0 0.00 0.01 0.00 92 1015.4
20260904041051 78 0 0.0 0.0 0.00 0.01 0.00 92 1015.5
20260904040551 78 0 0.0 0.0 0.00 0.01 0.00 92 1015.3
20260904040108 79 0 0.0 0.0 0.00 0.01 0.00 92 1015.3
20260904035551 78 0 0.0 0.0 0.00 0.01 0.01 92 1015.4
20260904035048 79 0 0.0 0.0 0.00 0.01 0.01 92 1015.5
20260904034604 79 0 0.0 0.0 0.00 0.01 0.01 92 1015.7
20260904034048 79 0 0.0 0.0 0.00 0.01 0.01 92 1015.8
20260904033547 79 0 0.0 0.0 0.00 0.01 0.01 92 1015.7
20260904033102 79 0 0.0 0.0 0.00 0.01 0.01 92 1015.6
20260904032548 79 0 0.0 0.0 0.00 0.01 0.01 92 1015.6
20260904032050 79 0 0.0 0.0 0.00 0.01 0.01 92 1015.5
20260904031556 79 0 0.0 0.0 0.00 0.01 0.01 92 1015.6
20260904031050 79 0 0.0 0.0 0.00 0.01 0.01 92 1015.7
20260904030548 79 0 0.0 0.0 0.00 0.01 0.01 92 1015.6
20260904030106 79 0 0.0 0.0 0.00 0.01 0.01 92 1015.5
20260904025554 79 0 0.0 0.0 0.00 0.01 0.01 92 1015.5
20260904025053 79 0 0.0 0.0 0.00 0.01 0.01 92 1015.4